• En España
  • Lista de países
  • Para 7 días
  • Temperatura del agua
  • Mapa Satelital
  • El tiempo en el mapa
  • Informadores
  • user-avatar
    Iniciar sesión

    Tiempo cada hora Rechytsa

    Hoy, 22 Febrero, Jueves

    Tiempo Temperatura Precipitaciones Viento Presión Humedad
    00:00 -4°C° 0,1 mm 1 mps 756 mmHg 96%
    01:00 -4°C° 0,1 mm 1 mps 756 mmHg 96%
    02:00 -6°C° 0 mm 1 mps 756 mmHg 96%
    03:00 -6°C° 0 mm 1 mps 756 mmHg 96%
    04:00 -6°C° 0 mm 1 mps 756 mmHg 96%
    05:00 -7°C° 0 mm 1 mps 756 mmHg 96%
    06:00 -7°C° 0 mm 1 mps 756 mmHg 96%
    07:00 -7°C° 0 mm 1 mps 756 mmHg 96%
    08:00 -7°C° 0 mm 1 mps 757 mmHg 96%
    09:00 -6°C° 0 mm 1 mps 757 mmHg 94%
    10:00 -4°C° 0 mm 1 mps 757 mmHg 92%
    11:00 -3°C° 0 mm 1 mps 757 mmHg 91%
    12:00 -2°C° 0 mm 1 mps 757 mmHg 89%
    13:00 -2°C° 0 mm 1 mps 757 mmHg 88%
    14:00 -1°C° 0 mm 1 mps 757 mmHg 87%
    15:00 -2°C° 0 mm 1 mps 757 mmHg 88%
    16:00 -2°C° 0 mm 1 mps 757 mmHg 90%
    17:00 -3°C° 0 mm 1 mps 757 mmHg 92%
    18:00 -4°C° 0 mm 1 mps 757 mmHg 92%
    19:00 -4°C° 0 mm 1 mps 757 mmHg 93%
    20:00 -6°C° 0 mm 1 mps 757 mmHg 94%
    21:00 -6°C° 0 mm 1 mps 757 mmHg 94%
    22:00 -7°C° 0 mm 1 mps 757 mmHg 94%
    23:00 -7°C° 0 mm 1 mps 757 mmHg 94%

    Mañana, 23 Febrero, Viernes

    Tiempo Temperatura Precipitaciones Viento Presión Humedad
    00:00 -8°C° 0 mm 1 mps 757 mmHg 94%
    01:00 -8°C° 0 mm 1 mps 757 mmHg 94%
    02:00 -9°C° 0 mm 1 mps 757 mmHg 94%
    03:00 -10°C° 0 mm 1 mps 757 mmHg 95%
    04:00 -10°C° 0 mm 1 mps 757 mmHg 95%
    05:00 -11°C° 0 mm 1 mps 757 mmHg 96%
    06:00 -10°C° 0 mm 1 mps 757 mmHg 95%
    07:00 -10°C° 0 mm 1 mps 757 mmHg 95%
    08:00 -10°C° 0 mm 1 mps 757 mmHg 95%
    09:00 -9°C° 0 mm 1 mps 757 mmHg 93%
    10:00 -8°C° 0 mm 1 mps 757 mmHg 90%
    11:00 -7°C° 0 mm 1 mps 757 mmHg 88%
    12:00 -6°C° 0 mm 1 mps 757 mmHg 86%
    13:00 -4°C° 0 mm 1 mps 756 mmHg 85%
    14:00 -4°C° 0 mm 1 mps 756 mmHg 83%
    15:00 -4°C° 0,1 mm 1 mps 756 mmHg 86%
    16:00 -6°C° 0,1 mm 1 mps 756 mmHg 88%
    17:00 -7°C° 0,1 mm 1 mps 755 mmHg 91%
    18:00 -7°C° 0,1 mm 1 mps 755 mmHg 91%
    19:00 -8°C° 0,1 mm 1 mps 755 mmHg 92%
    20:00 -9°C° 0,1 mm 1 mps 755 mmHg 93%
    21:00 -9°C° 0 mm 1 mps 755 mmHg 93%
    22:00 -9°C° 0 mm 1 mps 755 mmHg 93%
    23:00 -10°C° 0 mm 1 mps 755 mmHg 93%

    Pasado mañana, 24 Febrero, Sábado

    Tiempo Temperatura Precipitaciones Viento Presión Humedad
    00:00 -12°C° 0 mm 2 mps 755 mmHg 94%
    01:00 -12°C° 0 mm 2 mps 754 mmHg 94%
    02:00 -12°C° 0 mm 2 mps 754 mmHg 94%
    03:00 -13°C° 0,1 mm 2 mps 754 mmHg 94%
    04:00 -13°C° 0,1 mm 2 mps 754 mmHg 95%
    05:00 -13°C° 0,1 mm 2 mps 754 mmHg 95%
    06:00 -13°C° 0,1 mm 2 mps 754 mmHg 95%
    07:00 -14°C° 0,1 mm 3 mps 754 mmHg 94%
    08:00 -14°C° 0,1 mm 3 mps 754 mmHg 94%
    09:00 -14°C° 0,2 mm 3 mps 754 mmHg 93%
    10:00 -13°C° 0,2 mm 3 mps 755 mmHg 92%
    11:00 -13°C° 0,2 mm 3 mps 755 mmHg 90%
    12:00 -12°C° 0,1 mm 3 mps 755 mmHg 89%
    13:00 -12°C° 0,1 mm 3 mps 755 mmHg 87%
    14:00 -10°C° 0,1 mm 3 mps 755 mmHg 86%
    15:00 -10°C° 0 mm 3 mps 755 mmHg 87%
    16:00 -12°C° 0 mm 3 mps 755 mmHg 88%
    17:00 -12°C° 0 mm 3 mps 755 mmHg 89%
    18:00 -13°C° 0 mm 3 mps 756 mmHg 91%
    19:00 -14°C° 0 mm 3 mps 756 mmHg 92%
    20:00 -14°C° 0 mm 3 mps 756 mmHg 93%
    21:00 -15°C° 0 mm 3 mps 757 mmHg 93%
    22:00 -16°C° 0 mm 3 mps 757 mmHg 94%
    23:00 -17°C° 0 mm 3 mps 757 mmHg 94%

    25 Febrero, Domingo

    Tiempo Temperatura Precipitaciones Viento Presión Humedad
    00:00 -18°C° 0 mm 3 mps 757 mmHg 95%
    01:00 -19°C° 0 mm 3 mps 757 mmHg 95%
    02:00 -21°C° 0 mm 3 mps 758 mmHg 96%
    03:00 -21°C° 0 mm 3 mps 758 mmHg 96%
    04:00 -22°C° 0 mm 3 mps 758 mmHg 96%
    05:00 -22°C° 0 mm 3 mps 758 mmHg 97%
    06:00 -22°C° 0 mm 3 mps 758 mmHg 97%
    07:00 -23°C° 0 mm 3 mps 758 mmHg 96%
    08:00 -23°C° 0 mm 3 mps 758 mmHg 96%
    09:00 -22°C° 0 mm 3 mps 759 mmHg 95%
    10:00 -19°C° 0 mm 3 mps 759 mmHg 93%
    11:00 -18°C° 0 mm 3 mps 759 mmHg 91%
    12:00 -17°C° 0 mm 3 mps 758 mmHg 90%
    13:00 -16°C° 0 mm 3 mps 758 mmHg 89%
    14:00 -15°C° 0 mm 3 mps 758 mmHg 87%
    15:00 -16°C° 0 mm 3 mps 758 mmHg 88%
    16:00 -16°C° 0 mm 3 mps 758 mmHg 89%
    17:00 -16°C° 0 mm 3 mps 758 mmHg 90%
    18:00 -16°C° 0 mm 2 mps 758 mmHg 92%
    19:00 -17°C° 0 mm 2 mps 758 mmHg 93%
    20:00 -18°C° 0 mm 2 mps 759 mmHg 95%
    21:00 -19°C° 0 mm 2 mps 759 mmHg 96%
    22:00 -20°C° 0 mm 2 mps 759 mmHg 96%
    23:00 -20°C° 0 mm 2 mps 759 mmHg 97%

    26 Febrero, Lunes

    Tiempo Temperatura Precipitaciones Viento Presión Humedad
    00:00 -21°C° 0 mm 2 mps 759 mmHg 97%
    01:00 -21°C° 0 mm 2 mps 759 mmHg 98%
    02:00 -23°C° 0 mm 2 mps 759 mmHg 98%
    03:00 -23°C° 0 mm 2 mps 759 mmHg 98%
    04:00 -23°C° 0 mm 2 mps 759 mmHg 98%
    05:00 -21°C° 0 mm 1 mps 759 mmHg 99%
    06:00 -20°C° 0 mm 1 mps 759 mmHg 98%
    07:00 -20°C° 0 mm 1 mps 759 mmHg 98%
    08:00 -20°C° 0 mm 1 mps 759 mmHg 98%
    09:00 -19°C° 0 mm 1 mps 759 mmHg 94%
    10:00 -17°C° 0 mm 1 mps 759 mmHg 91%
    11:00 -15°C° 0 mm 1 mps 759 mmHg 87%
    12:00 -14°C° 0 mm 1 mps 759 mmHg 85%
    13:00 -13°C° 0 mm 1 mps 759 mmHg 83%
    14:00 -13°C° 0 mm 1 mps 759 mmHg 81%
    15:00 -13°C° 0 mm 1 mps 759 mmHg 84%
    16:00 -14°C° 0 mm 1 mps 758 mmHg 86%
    17:00 -14°C° 0 mm 1 mps 758 mmHg 89%
    18:00 -16°C° 0 mm 1 mps 758 mmHg 91%
    19:00 -17°C° 0 mm 1 mps 758 mmHg 93%
    20:00 -18°C° 0 mm 1 mps 758 mmHg 95%
    21:00 -19°C° 0 mm 1 mps 758 mmHg 95%
    22:00 -19°C° 0 mm 1 mps 758 mmHg 95%
    23:00 -19°C° 0 mm 1 mps 759 mmHg 96%

    27 Febrero, Martes

    Tiempo Temperatura Precipitaciones Viento Presión Humedad
    00:00 -20°C° 0 mm 1 mps 758 mmHg 96%
    01:00 -20°C° 0 mm 1 mps 758 mmHg 97%
    02:00 -20°C° 0 mm 1 mps 758 mmHg 97%
    03:00 -20°C° 0 mm 1 mps 758 mmHg 97%
    04:00 -20°C° 0 mm 1 mps 758 mmHg 98%
    05:00 -24°C° 0 mm 2 mps 758 mmHg 98%
    06:00 -23°C° 0 mm 2 mps 758 mmHg 98%
    07:00 -23°C° 0 mm 2 mps 758 mmHg 97%
    08:00 -23°C° 0 mm 2 mps 759 mmHg 97%
    09:00 -22°C° 0 mm 3 mps 759 mmHg 94%
    10:00 -19°C° 0 mm 3 mps 759 mmHg 92%
    11:00 -18°C° 0 mm 3 mps 759 mmHg 90%
    12:00 -17°C° 0 mm 3 mps 759 mmHg 88%
    13:00 -17°C° 0 mm 4 mps 758 mmHg 87%
    14:00 -16°C° 0 mm 4 mps 758 mmHg 86%
    15:00 -16°C° 0 mm 4 mps 758 mmHg 86%
    16:00 -16°C° 0 mm 4 mps 758 mmHg 87%
    17:00 -16°C° 0 mm 4 mps 758 mmHg 88%
    18:00 -18°C° 0 mm 5 mps 758 mmHg 88%
    19:00 -18°C° 0 mm 5 mps 758 mmHg 88%
    20:00 -18°C° 0 mm 5 mps 758 mmHg 88%
    21:00 -18°C° 0 mm 6 mps 757 mmHg 87%
    22:00 -20°C° 0 mm 6 mps 757 mmHg 86%
    23:00 -20°C° 0 mm 6 mps 757 mmHg 85%
    Mostrar más